GSAT0217 (GALILEO 21)

Last updated on Feb. 23, 2020, 4:52 a.m. UTC

1 43057U 17079C   20052.90744330  .00000009  00000-0  00000+0 0  9990
2 43057  56.3579 284.9941 0002996 317.6250  42.4246  1.70473878 13655
UTC
Height (km)
Latitude
Longitude
Inclination
Orbital Period
UTC large
Height (km)
Speed (km/s)
/
Latitude / Longitude
Inclination (degrees)
Orbital Period (minutes)
Azimuth
Elevation
Range (km)
Doppler Factor
iOS Compass Heading
iOS Angle

Next 30 passes for location: Hong Kong

Rise time Rise Azimuth (degrees) Set time Set Azimuth (degrees) Duration Max altitude (degrees)

No matching passes for this satellites